FW0019 Weather Reports


time (UTC)temp
F
wind
direction
speed
knots
gust
knots
rain 1hr
in
rain 24hr
in
rain mn
in
humidity
%
barometer
mb
20260504043102 42 139 12.2 20.9 0.00 0.00 0.00 97 875.0
20260504041556 43 123 10.4 16.5 0.00 0.00 0.00 96 874.9
20260504034558 43 144 12.2 18.2 0.00 0.00 0.00 96 875.2
20260504033053 43 134 11.3 20.0 0.00 0.00 0.00 96 875.1
20260504031547 43 121 9.6 15.6 0.00 0.00 0.00 96 875.2
20260504030116 43 72 8.7 18.2 0.00 0.00 0.00 96 874.9
20260504024544 44 161 13.0 20.0 0.00 0.00 0.00 96 874.7
20260504023042 44 192 12.2 20.0 0.00 0.00 0.00 95 874.7
20260504021540 44 138 14.8 24.3 0.00 0.00 0.00 95 874.8
20260504020046 45 151 14.8 22.6 0.00 0.00 0.00 94 874.6
20260504014538 46 114 13.0 22.6 0.00 0.00 0.00 92 874.8
20260504013036 47 143 13.0 22.6 0.00 0.00 0.00 92 874.7
20260504011529 48 131 10.4 20.9 0.00 0.00 0.00 91 874.8
20260504010027 49 134 9.6 21.7 0.00 0.00 0.00 91 874.7
20260504004525 49 140 8.7 20.9 0.00 0.00 0.00 91 874.7
20260504003024 50 150 10.4 21.7 0.00 0.00 0.00 90 874.6
20260504001524 50 104 7.8 16.5 0.00 0.00 0.00 88 874.6
20260504000023 50 103 11.3 18.2 0.00 0.00 0.00 89 874.7
20260503234523 49 132 10.4 19.1 0.00 0.00 0.00 92 874.4
20260503233021 49 130 12.2 18.2 0.00 0.00 0.00 92 874.5
20260503231521 50 136 12.2 21.7 0.00 0.00 0.00 91 874.6
20260503230017 51 138 12.2 20.0 0.00 0.00 0.00 90 874.7
20260503224515 50 106 11.3 19.1 0.00 0.00 0.00 90 874.8
20260503223013 51 135 11.3 19.1 0.00 0.00 0.00 90 874.9
20260503221512 50 144 11.3 17.4 0.00 0.00 0.00 91 874.8
20260503220011 52 144 10.4 18.2 0.00 0.00 0.00 88 875.2
20260503214532 54 128 8.7 13.9 0.00 0.00 0.00 86 875.1
20260503213010 55 153 7.8 14.8 0.00 0.00 0.00 83 875.3
20260503211510 54 119 8.7 15.6 0.00 0.00 0.00 85 875.3
20260503210010 54 148 10.4 15.6 0.00 0.00 0.00 87 875.4
20260503204510 53 120 7.8 13.0 0.00 0.00 0.00 89 875.5
20260503203008 51 105 6.1 14.8 0.00 0.00 0.00 92 875.6
20260503201508 51 157 8.7 17.4 0.00 0.00 0.00 92 875.7
20260503200005 52 140 10.4 14.8 0.00 0.00 0.00 90 875.7
20260503194503 53 129 11.3 18.2 0.00 0.00 0.00 87 875.7
20260503193105 56 142 11.3 18.2 0.00 0.00 0.00 83 875.8
20260503191607 59 118 11.3 17.4 0.00 0.00 0.00 77 875.8
20260503184622 63 104 6.1 9.6 0.00 0.00 0.00 63 876.0
20260503183100 67 95 4.3 14.8 0.00 0.00 0.00 37 876.2
20260503181611 62 261 3.5 7.8 0.00 0.00 0.00 44 876.3
20260503180111 58 80 2.6 9.6 0.00 0.00 0.00 75 876.5
20260503174557 59 135 5.2 10.4 0.00 0.00 0.00 75 876.5
20260503173100 58 158 7.0 10.4 0.00 0.00 0.00 73 876.2
20260503171552 59 163 5.2 9.6 0.00 0.00 0.00 71 876.3
20260503081558 54 121 1.7 3.5 0.00 0.00 0.00 41 876.6
20260503080106 53 336 0.0 0.0 0.00 0.00 0.00 44 876.9
20260503071550 58 43 0.0 1.7 0.00 0.00 0.00 35 877.3
20260503054541 52 284 0.0 0.0 0.00 0.00 0.00 67 877.7
20260503053041 52 285 0.0 0.0 0.00 0.00 0.00 52 877.7
20260503051541 52 284 0.0 0.0 0.00 0.00 0.00 60 877.6
20260503050040 52 285 0.0 2.6 0.00 0.00 0.00 65 877.5
20260503044544 52 284 0.0 1.7 0.00 0.00 0.00 65 877.4